SY1EBE-13 Weather Reports


time (UTC)temp
F
wind
direction
speed
knots
gust
knots
rain 1hr
in
rain 24hr
in
rain mn
in
humidity
%
barometer
mb
20260906090748 86 0.0 0.0 0.00 0.00 0.00 45 1015.8
20260906084227 85 0.0 0.0 0.00 0.00 0.00 46 1015.8
20260906081652 85 0.0 0.0 0.00 0.00 0.00 50 1015.8
20260906075151 85 0.0 0.0 0.00 0.00 0.00 56 1015.8
20260906072632 85 0.0 0.0 0.00 0.00 0.00 52 1015.6
20260906070116 84 0.0 0.0 0.00 0.00 0.00 53 1015.3
20260906063557 84 0.0 0.0 0.00 0.00 0.00 57 1015.0
20260906061036 84 0.0 0.0 0.00 0.00 0.00 57 1014.8
20260906054515 84 0.0 0.0 0.00 0.00 0.00 52 1014.7
20260906051951 83 0.0 0.0 0.00 0.00 0.00 51 1014.5
20260906041714 85 0.0 0.0 0.00 0.00 0.00 50 1013.9
20260906035149 85 0.0 0.0 0.00 0.00 0.00 50 1013.6
20260906032629 85 0.0 0.0 0.00 0.00 0.00 50 1013.5
20260906030113 85 0.0 0.0 0.00 0.00 0.00 50 1013.5
20260906023608 85 0.0 0.0 0.00 0.00 0.00 50 1013.2
20260906021038 85 0.0 0.0 0.00 0.00 0.00 49 1013.3
20260906014520 85 0.0 0.0 0.00 0.00 0.00 49 1013.4
20260906012001 85 0.0 0.0 0.00 0.00 0.00 49 1013.1
20260906005436 85 0.0 0.0 0.00 0.00 0.00 49 1013.0
20260906002917 85 0.0 0.0 0.00 0.00 0.00 49 1013.1
20260906000356 85 0.0 0.0 0.00 0.00 0.00 49 1013.3
20260905233832 85 0.0 0.0 0.00 0.00 0.00 49 1013.4
20260905231310 85 0.0 0.0 0.00 0.00 0.00 49 1013.8
20260905224756 85 0.0 0.0 0.00 0.00 0.00 49 1013.8
20260905222235 85 0.0 0.0 0.00 0.00 0.00 49 1013.8
20260905215719 85 0.0 0.0 0.00 0.00 0.00 49 1013.9
20260905213159 85 0.0 0.0 0.00 0.00 0.00 49 1014.3
20260905210620 85 0.0 0.0 0.00 0.00 0.00 49 1014.4
20260905204115 85 0.0 0.0 0.00 0.00 0.00 48 1014.4
20260905201552 85 0.0 0.0 0.00 0.00 0.00 48 1014.5
20260905195029 85 0.0 0.0 0.00 0.00 0.00 48 1014.7
20260905192509 85 0.0 0.0 0.00 0.00 0.00 48 1014.6
20260905185948 85 0.0 0.0 0.00 0.00 0.00 48 1014.6
20260905183429 85 0.0 0.0 0.00 0.00 0.00 47 1014.5
20260905180856 85 0.0 0.0 0.00 0.00 0.00 47 1014.3
20260905174349 85 0.0 0.0 0.00 0.00 0.00 47 1014.1
20260905171828 85 0.0 0.0 0.00 0.00 0.00 47 1013.9
20260905161831 85 0.0 0.0 0.00 0.00 0.00 46 1014.1
20260905155314 86 0.0 0.0 0.00 0.00 0.00 45 1014.2
20260905152753 86 0.0 0.0 0.00 0.00 0.00 45 1014.3
20260905150233 86 0.0 0.0 0.00 0.00 0.00 44 1014.4
20260905143715 86 0.0 0.0 0.00 0.00 0.00 44 1014.4
20260905141155 86 0.0 0.0 0.00 0.00 0.00 43 1014.4
20260905134632 86 0.0 0.0 0.00 0.00 0.00 43 1014.5
20260905132113 86 0.0 0.0 0.00 0.00 0.00 43 1014.6
20260905125557 86 0.0 0.0 0.00 0.00 0.00 42 1014.8
20260905123039 86 0.0 0.0 0.00 0.00 0.00 42 1015.0
20260905120518 86 0.0 0.0 0.00 0.00 0.00 41 1015.3
20260905114003 86 0.0 0.0 0.00 0.00 0.00 40 1015.5
20260905111425 86 0.0 0.0 0.00 0.00 0.00 40 1015.6
20260905104842 86 0.0 0.0 0.00 0.00 0.00 39 1015.7
20260905102339 86 0.0 0.0 0.00 0.00 0.00 38 1015.7
20260905095822 85 0.0 0.0 0.00 0.00 0.00 38 1015.8
20260905093304 85 0.0 0.0 0.00 0.00 0.00 37 1016.0